Regional Weather Roundup
Issued by NWS Little Rock, AR

Home | Current Version | Previous Version | Text Only | Print | Product List | Glossary On
Versions: 1 2 3 4 5 6 7 8 9 10 11 12 13 14 15 16 17 18 19 20 21 22 23 24 25 26 27 28 29 30 31 32 33 34 35 36 37 38 39 40 41 42 43 44 45 46 47 48 49 50
072
ASUS44 KLZK 222305
RWRLZK

WEATHER ROUNDUP FOR ARKANSAS
NATIONAL WEATHER SERVICE LITTLE ROCK AR
600 PM CDT TUE AUG 22 2017

NOTE: "FAIR" INDICATES FEW OR NO CLOUDS BELOW 12,000 FEET WITH NO
SIGNIFICANT WEATHER AND/OR OBSTRUCTIONS TO VISIBILITY.

ARZ001-003-010-029-230000-
NORTHWEST ARKANSAS

CITY           SKY/WX    TMP DP  RH WIND       PRES   REMARKS
FAYETTEVILLE   CLOUDY    82  74  76 N5        30.03F HX  88
FORT SMITH     SUNNY     91  72  53 CALM      29.96F HX  98
HARRISON       CLOUDY    83  70  64 NW9       30.05S HX  87
BENTONVILLE    CLOUDY    82  70  65 N8        30.06S HX  86
ROGERS         CLOUDY    81  72  74 N6        30.06S HX  85
HIGHFILL       PTSUNNY   83  73  72 N8        30.05S HX  89
SPRINGDALE     PTSUNNY   86  70  58 NW7       30.06S HX  90
$$

ARZ004-005-016-230000-
NORTH CENTRAL ARKANSAS

CITY           SKY/WX    TMP DP  RH WIND       PRES   REMARKS
FLIPPIN        SUNNY     84  66  54 N8        30.01S HX  86
MTN HOME       SUNNY     82  69  64 VRB5      30.03S HX  85
$$

ARZ040-041-230000-
WEST CENTRAL ARKANSAS

CITY           SKY/WX    TMP DP  RH WIND       PRES   REMARKS
MENA           MOSUNNY   86  81  84 CALM      30.02S HX 102
MOUNT IDA      PTSUNNY   87  72  60 CALM      29.98F HX  93
$$

ARZ009-017-025-026-028-230000-
NORTHEAST ARKANSAS

CITY           SKY/WX    TMP DP  RH WIND       PRES   REMARKS
CORNING        FAIR      84  73  70 NW10      29.99R HX  91
JONESBORO      SUNNY     85  71  63 N9        29.98R HX  90
NEWPORT        SUNNY     86  71  60 N12       29.98R HX  91
WALNUT RIDGE   SUNNY     84  70  61 CALM      29.99R HX  88
BLYTHEVILLE    MOSUNNY   83  71  67 N9G18     29.98R HX  87
$$

ARZ022-023-033-042-044-230000-
CENTRAL ARKANSAS

CITY           SKY/WX    TMP DP  RH WIND       PRES   REMARKS
LITTLE ROCK    CLOUDY    85  75  72 W9        29.96F HX  93
N LITTLE ROCK    N/A     86  75  69 SW3       29.96F HX  96
JACKSONVILLE   MOSUNNY   89  77  67 W6        29.95F HX 102
CONWAY           N/A     91  72  52 N7        29.94F HX  98
SEARCY         SUNNY     90  72  55 N8        29.97F HX  97
HOT SPRINGS    CLOUDY    82  74  76 VRB3      29.99F HX  88
RUSSELLVILLE   SUNNY     89  71  55 VRB3      29.96F HX  95
CLINTON        FAIR      90  70  51 VRB5      29.98F HX  95
$$

ARZ036-230000-
EAST ARKANSAS

CITY           SKY/WX    TMP DP  RH WIND       PRES   REMARKS
WEST MEMPHIS   SUNNY     89  76  65 VRB6      29.94S HX 100
$$

ARZ050-053-066-070-073-230000-
SOUTHWEST ARKANSAS

CITY           SKY/WX    TMP DP  RH WIND       PRES   REMARKS
ARKADELPHIA    FAIR      83  77  82 NE5       29.98S HX  92
CAMDEN         SUNNY     93  72  49 S6        29.95F HX 100
TEXARKANA      SUNNY     90  74  59 S5        29.98F HX  99
EL DORADO      SUNNY     92  71  50 SW7       29.97F HX  98
DE QUEEN       MOSUNNY   86  77  74 N5        29.97S HX  97
$$

ARZ056-057-069-230000-
SOUTHEAST ARKANSAS

CITY           SKY/WX    TMP DP  RH WIND       PRES   REMARKS
PINE BLUFF     SUNNY     90  73  57 W7        29.96S HX  98
MONTICELLO     SUNNY     92  73  53 S8        29.96F HX 100

$$






USA.gov is the U.S. government's official web portal to all federal, state and local government web resources and services.